Location: Rounton
(54.4000°N, 1.3500°W)
Time: 18:52:38
(UTC+01:00)

N. Korean satellite - Pass Details

Date: 21 August 2022
Orbit: 427 x 468 km, 97.3° (Epoch: 26 September)

Event Time Altitude Azimuth Distance (km) Brightness Sun altitude
Rises 05:06:20 0° 31° (NNE) 2,541 11.5 -6.8°
Reaches altitude 10° 05:09:53 10° 69° (ENE) 1,651 11.0 -6.4°
Maximum altitude 05:10:55 11° 86° (E) 1,585 10.3 -6.3°
Drops below altitude 10° 05:11:56 10° 103° (ESE) 1,643 10.0 -6.1°
Sets 05:15:26 0° 141° (SE) 2,504 10.3 -5.7°
